Time,TemperatureF,DewpointF,PressureIn,WindDirection,WindDirectionDegrees,WindSpeedMPH,WindSpeedGustMPH,Humidity,HourlyPrecipIn,Conditions,Clouds,dailyrainin,SoftwareType,DateUTC
2013-03-29 00:00:00,36.7,31.4,30.32,NNE,22,0.0,0.0,81,0.00,,,0.00,WUHU216DAVISVP2,2013-03-29 04:00:00,
2013-03-29 00:05:00,36.5,30.9,30.32,NNE,22,0.0,0.0,80,0.00,,,0.00,WUHU216DAVISVP2,2013-03-29 04:05:00,
2013-03-29 00:10:00,36.5,30.6,30.32,NNE,21,0.0,0.0,79,0.00,,,0.00,WUHU216DAVISVP2,2013-03-29 04:10:00,
2013-03-29 00:15:00,36.6,30.7,30.32,NNE,21,0.0,0.0,79,0.00,,,0.00,WUHU216DAVISVP2,2013-03-29 04:15:00,
2013-03-29 00:20:00,36.5,30.6,30.32,NNE,22,0.0,0.0,79,0.00,,,0.00,WUHU216DAVISVP2,2013-03-29 04:20:00,
2013-03-29 00:25:00,36.5,30.6,30.32,NNE,21,0.0,0.0,79,0.00,,,0.00,WUHU216DAVISVP2,2013-03-29 04:25:00,
2013-03-29 00:30:00,36.3,31.0,30.32,NNE,22,0.0,0.0,81,0.00,,,0.00,WUHU216DAVISVP2,2013-03-29 04:30:00,
2013-03-29 00:35:00,36.2,31.2,30.32,NNE,22,0.0,0.0,82,0.00,,,0.00,WUHU216DAVISVP2,2013-03-29 04:35:00,
2013-03-29 00:40:00,36.1,31.1,30.32,NNE,21,0.0,0.0,82,0.00,,,0.00,WUHU216DAVISVP2,2013-03-29 04:40:00,
2013-03-29 00:45:00,36.1,31.1,30.32,NNE,21,0.0,0.0,82,0.00,,,0.00,WUHU216DAVISVP2,2013-03-29 04:45:00,
2013-03-29 00:50:00,36.1,31.1,30.32,NNE,22,0.0,0.0,82,0.00,,,0.00,WUHU216DAVISVP2,2013-03-29 04:50:00,
2013-03-29 00:55:00,36.1,31.4,30.32,NNE,22,0.0,0.0,83,0.00,,,0.00,WUHU216DAVISVP2,2013-03-29 04:55:00,
2013-03-29 01:00:00,36.0,30.7,30.32,NNE,22,0.0,0.0,81,0.00,,,0.00,WUHU216DAVISVP2,2013-03-29 05:00:00,
2013-03-29 01:05:00,36.0,31.0,30.31,NNE,22,0.0,0.0,82,0.00,,,0.00,WUHU216DAVISVP2,2013-03-29 05:05:00,
2013-03-29 01:10:00,35.9,30.9,30.32,NNE,21,0.0,0.0,82,0.00,,,0.00,WUHU216DAVISVP2,2013-03-29 05:10:00,
2013-03-29 01:15:00,35.7,30.1,30.32,NNE,21,0.0,0.0,80,0.00,,,0.00,WUHU216DAVISVP2,2013-03-29 05:15:00,
2013-03-29 01:20:00,35.7,30.7,30.32,NNE,22,0.0,0.0,82,0.00,,,0.00,WUHU216DAVISVP2,2013-03-29 05:20:00,
2013-03-29 01:25:00,35.8,30.5,30.32,NNE,22,0.0,0.0,81,0.00,,,0.00,WUHU216DAVISVP2,2013-03-29 05:25:00,
2013-03-29 01:30:00,35.8,31.1,30.32,NNE,21,0.0,0.0,83,0.00,,,0.00,WUHU216DAVISVP2,2013-03-29 05:30:00,
2013-03-29 01:35:00,35.7,31.3,30.32,NNE,22,0.0,0.0,84,0.00,,,0.00,WUHU216DAVISVP2,2013-03-29 05:35:00,
2013-03-29 01:40:00,35.5,31.1,30.32,NNE,21,0.0,0.0,84,0.00,,,0.00,WUHU216DAVISVP2,2013-03-29 05:40:00,
2013-03-29 01:45:00,35.4,31.0,30.32,NNE,22,0.0,0.0,84,0.00,,,0.00,WUHU216DAVISVP2,2013-03-29 05:45:00,
2013-03-29 01:50:00,35.4,31.0,30.32,NNE,22,0.0,0.0,84,0.00,,,0.00,WUHU216DAVISVP2,2013-03-29 05:50:00,
2013-03-29 01:55:00,35.4,31.3,30.32,NNE,22,0.0,0.0,85,0.00,,,0.00,WUHU216DAVISVP2,2013-03-29 05:55:00,
2013-03-29 02:00:00,35.3,31.2,30.32,NNE,22,0.0,0.0,85,0.00,,,0.00,WUHU216DAVISVP2,2013-03-29 06:00:00,
2013-03-29 02:05:00,35.2,30.9,30.32,NNE,22,0.0,0.0,84,0.00,,,0.00,WUHU216DAVISVP2,2013-03-29 06:05:00,
2013-03-29 02:10:00,35.2,30.8,30.32,NNE,22,0.0,0.0,84,0.00,,,0.00,WUHU216DAVISVP2,2013-03-29 06:10:00,
2013-03-29 02:15:00,35.1,30.4,30.32,NNE,22,0.0,0.0,83,0.00,,,0.00,WUHU216DAVISVP2,2013-03-29 06:15:00,
2013-03-29 02:20:00,35.2,30.5,30.32,NNE,21,0.0,0.0,83,0.00,,,0.00,WUHU216DAVISVP2,2013-03-29 06:20:00,
2013-03-29 02:25:00,35.3,30.9,30.32,NNE,22,0.0,0.0,84,0.00,,,0.00,WUHU216DAVISVP2,2013-03-29 06:25:00,
2013-03-29 02:30:00,35.5,31.4,30.32,NNE,21,0.0,0.0,85,0.00,,,0.00,WUHU216DAVISVP2,2013-03-29 06:30:00,
2013-03-29 02:35:00,35.3,30.9,30.32,NNE,22,0.0,0.0,84,0.00,,,0.00,WUHU216DAVISVP2,2013-03-29 06:35:00,
2013-03-29 02:40:00,35.2,30.8,30.32,NNE,22,0.0,0.0,84,0.00,,,0.00,WUHU216DAVISVP2,2013-03-29 06:40:00,
2013-03-29 02:45:00,35.3,30.9,30.32,ENE,68,0.0,0.0,84,0.00,,,0.00,WUHU216DAVISVP2,2013-03-29 06:45:00,
2013-03-29 02:50:00,35.3,31.5,30.32,ENE,68,0.0,0.0,86,0.00,,,0.00,WUHU216DAVISVP2,2013-03-29 06:50:00,
2013-03-29 02:55:00,35.1,31.3,30.32,ENE,68,0.0,0.0,86,0.00,,,0.00,WUHU216DAVISVP2,2013-03-29 06:55:00,
2013-03-29 03:00:00,35.0,30.9,30.32,ENE,68,0.0,0.0,85,0.00,,,0.00,WUHU216DAVISVP2,2013-03-29 07:00:00,
2013-03-29 03:05:00,35.0,31.2,30.32,ENE,68,0.0,0.0,86,0.00,,,0.00,WUHU216DAVISVP2,2013-03-29 07:05:00,
2013-03-29 03:10:00,35.1,31.0,30.32,ENE,68,0.0,0.0,85,0.00,,,0.00,WUHU216DAVISVP2,2013-03-29 07:10:00,
2013-03-29 03:15:00,35.1,31.0,30.31,ENE,68,0.0,0.0,85,0.00,,,0.00,WUHU216DAVISVP2,2013-03-29 07:15:00,
2013-03-29 03:20:00,35.1,31.0,30.31,ENE,68,0.0,0.0,85,0.00,,,0.00,WUHU216DAVISVP2,2013-03-29 07:20:00,
2013-03-29 03:25:00,35.0,30.9,30.31,ENE,68,0.0,0.0,85,0.00,,,0.00,WUHU216DAVISVP2,2013-03-29 07:25:00,
2013-03-29 03:30:00,35.0,30.9,30.31,ENE,68,0.0,0.0,85,0.00,,,0.00,WUHU216DAVISVP2,2013-03-29 07:30:00,
2013-03-29 03:35:00,34.8,31.0,30.31,ENE,68,0.0,0.0,86,0.00,,,0.00,WUHU216DAVISVP2,2013-03-29 07:35:00,
2013-03-29 03:40:00,34.6,30.8,30.31,ENE,68,0.0,0.0,86,0.00,,,0.00,WUHU216DAVISVP2,2013-03-29 07:40:00,
2013-03-29 03:45:00,34.5,31.0,30.31,ENE,68,0.0,0.0,87,0.00,,,0.00,WUHU216DAVISVP2,2013-03-29 07:45:00,
2013-03-29 03:50:00,34.5,31.0,30.31,ENE,68,0.0,0.0,87,0.00,,,0.00,WUHU216DAVISVP2,2013-03-29 07:50:00,
2013-03-29 03:55:00,34.5,31.0,30.31,ENE,68,0.0,0.0,87,0.00,,,0.00,WUHU216DAVISVP2,2013-03-29 07:55:00,
2013-03-29 04:00:00,34.5,30.7,30.31,ENE,68,0.0,0.0,86,0.00,,,0.00,WUHU216DAVISVP2,2013-03-29 08:00:00,
2013-03-29 04:05:00,34.5,31.0,30.31,ENE,68,0.0,0.0,87,0.00,,,0.00,WUHU216DAVISVP2,2013-03-29 08:05:00,
2013-03-29 04:10:00,34.4,30.9,30.31,ENE,68,0.0,0.0,87,0.00,,,0.00,WUHU216DAVISVP2,2013-03-29 08:10:00,
2013-03-29 04:15:00,34.4,30.9,30.31,ENE,68,0.0,0.0,87,0.00,,,0.00,WUHU216DAVISVP2,2013-03-29 08:15:00,
2013-03-29 04:20:00,34.5,31.0,30.31,ENE,68,0.0,0.0,87,0.00,,,0.00,WUHU216DAVISVP2,2013-03-29 08:20:00,
2013-03-29 04:25:00,34.5,31.0,30.31,ENE,68,0.0,0.0,87,0.00,,,0.00,WUHU216DAVISVP2,2013-03-29 08:25:00,
2013-03-29 04:30:00,34.6,31.1,30.30,ENE,68,0.0,0.0,87,0.00,,,0.00,WUHU216DAVISVP2,2013-03-29 08:30:00,
2013-03-29 04:35:00,34.5,31.0,30.30,ENE,68,0.0,0.0,87,0.00,,,0.00,WUHU216DAVISVP2,2013-03-29 08:35:00,
2013-03-29 04:40:00,34.4,30.9,30.31,ENE,68,0.0,0.0,87,0.00,,,0.00,WUHU216DAVISVP2,2013-03-29 08:40:00,
2013-03-29 04:45:00,34.2,31.0,30.31,ENE,68,0.0,0.0,88,0.00,,,0.00,WUHU216DAVISVP2,2013-03-29 08:45:00,
2013-03-29 04:50:00,34.2,31.0,30.31,ENE,68,0.0,0.0,88,0.00,,,0.00,WUHU216DAVISVP2,2013-03-29 08:50:00,
2013-03-29 04:55:00,34.2,30.7,30.31,ENE,68,0.0,0.0,87,0.00,,,0.00,WUHU216DAVISVP2,2013-03-29 08:55:00,
2013-03-29 05:00:00,34.2,31.0,30.31,ENE,68,0.0,0.0,88,0.00,,,0.00,WUHU216DAVISVP2,2013-03-29 09:00:00,
2013-03-29 05:05:00,34.1,30.6,30.31,ENE,68,0.0,0.0,87,0.00,,,0.00,WUHU216DAVISVP2,2013-03-29 09:05:00,
2013-03-29 05:10:00,34.3,30.8,30.31,ENE,68,0.0,0.0,87,0.00,,,0.00,WUHU216DAVISVP2,2013-03-29 09:10:00,
2013-03-29 05:15:00,34.3,30.8,30.31,ENE,68,0.0,0.0,87,0.00,,,0.00,WUHU216DAVISVP2,2013-03-29 09:15:00,
2013-03-29 05:20:00,34.3,30.8,30.31,ENE,68,0.0,0.0,87,0.00,,,0.00,WUHU216DAVISVP2,2013-03-29 09:20:00,
2013-03-29 05:25:00,34.2,30.7,30.31,ENE,68,0.0,0.0,87,0.00,,,0.00,WUHU216DAVISVP2,2013-03-29 09:25:00,
2013-03-29 05:30:00,34.0,30.8,30.31,ENE,68,0.0,0.0,88,0.00,,,0.00,WUHU216DAVISVP2,2013-03-29 09:30:00,
2013-03-29 05:35:00,33.9,30.7,30.31,ENE,68,0.0,0.0,88,0.00,,,0.00,WUHU216DAVISVP2,2013-03-29 09:35:00,
2013-03-29 05:40:00,33.8,30.9,30.31,ENE,68,0.0,0.0,89,0.00,,,0.00,WUHU216DAVISVP2,2013-03-29 09:40:00,
2013-03-29 05:45:00,33.9,30.7,30.31,ENE,68,0.0,0.0,88,0.00,,,0.00,WUHU216DAVISVP2,2013-03-29 09:45:00,
2013-03-29 05:50:00,34.0,30.8,30.31,ENE,68,0.0,0.0,88,0.00,,,0.00,WUHU216DAVISVP2,2013-03-29 09:50:00,
2013-03-29 05:55:00,34.0,30.8,30.31,ENE,68,0.0,0.0,88,0.00,,,0.00,WUHU216DAVISVP2,2013-03-29 09:55:00,
2013-03-29 06:00:00,33.9,30.7,30.31,ENE,68,0.0,0.0,88,0.00,,,0.00,WUHU216DAVISVP2,2013-03-29 10:00:00,
2013-03-29 06:05:00,33.7,30.5,30.31,ENE,68,0.0,0.0,88,0.00,,,0.00,WUHU216DAVISVP2,2013-03-29 10:05:00,
2013-03-29 06:10:00,33.6,30.7,30.31,ENE,68,0.0,0.0,89,0.00,,,0.00,WUHU216DAVISVP2,2013-03-29 10:10:00,
2013-03-29 06:15:00,33.5,30.6,30.31,ENE,68,0.0,0.0,89,0.00,,,0.00,WUHU216DAVISVP2,2013-03-29 10:15:00,
2013-03-29 06:20:00,33.5,30.6,30.31,ENE,68,0.0,0.0,89,0.00,,,0.00,WUHU216DAVISVP2,2013-03-29 10:20:00,
2013-03-29 06:25:00,33.4,30.5,30.31,ENE,68,0.0,0.0,89,0.00,,,0.00,WUHU216DAVISVP2,2013-03-29 10:25:00,
2013-03-29 06:30:00,33.3,30.4,30.32,ENE,68,0.0,0.0,89,0.00,,,0.00,WUHU216DAVISVP2,2013-03-29 10:30:00,
2013-03-29 06:35:00,33.3,30.4,30.32,ENE,68,0.0,0.0,89,0.00,,,0.00,WUHU216DAVISVP2,2013-03-29 10:35:00,
2013-03-29 06:40:00,33.2,30.3,30.32,ENE,68,0.0,0.0,89,0.00,,,0.00,WUHU216DAVISVP2,2013-03-29 10:40:00,
2013-03-29 06:45:00,33.1,30.2,30.32,ENE,68,0.0,0.0,89,0.00,,,0.00,WUHU216DAVISVP2,2013-03-29 10:45:00,
2013-03-29 06:50:00,32.9,30.0,30.32,ENE,68,0.0,0.0,89,0.00,,,0.00,WUHU216DAVISVP2,2013-03-29 10:50:00,
2013-03-29 06:55:00,33.0,30.3,30.32,ENE,68,0.0,0.0,90,0.00,,,0.00,WUHU216DAVISVP2,2013-03-29 10:55:00,
2013-03-29 07:00:00,33.0,30.3,30.32,ENE,68,0.0,0.0,90,0.00,,,0.00,WUHU216DAVISVP2,2013-03-29 11:00:00,
2013-03-29 07:05:00,33.0,30.3,30.32,ENE,68,0.0,0.0,90,0.00,,,0.00,WUHU216DAVISVP2,2013-03-29 11:05:00,
2013-03-29 07:10:00,32.9,30.2,30.33,ENE,68,0.0,0.0,90,0.00,,,0.00,WUHU216DAVISVP2,2013-03-29 11:10:00,
2013-03-29 07:15:00,32.9,30.2,30.33,ENE,68,0.0,0.0,90,0.00,,,0.00,WUHU216DAVISVP2,2013-03-29 11:15:00,
2013-03-29 07:20:00,32.9,30.2,30.33,ENE,68,0.0,0.0,90,0.00,,,0.00,WUHU216DAVISVP2,2013-03-29 11:20:00,
2013-03-29 07:25:00,32.9,30.3,30.33,ENE,68,0.0,0.0,90,0.00,,,0.00,WUHU216DAVISVP2,2013-03-29 11:25:00,
2013-03-29 07:30:00,32.9,30.3,30.33,ENE,68,0.0,0.0,90,0.00,,,0.00,WUHU216DAVISVP2,2013-03-29 11:30:00,
2013-03-29 07:35:00,32.8,30.1,30.33,ENE,68,0.0,0.0,90,0.00,,,0.00,WUHU216DAVISVP2,2013-03-29 11:35:00,
2013-03-29 07:40:00,32.8,30.2,30.33,ENE,68,0.0,0.0,90,0.00,,,0.00,WUHU216DAVISVP2,2013-03-29 11:40:00,
2013-03-29 07:45:00,32.7,30.1,30.33,ENE,68,0.0,0.0,90,0.00,,,0.00,WUHU216DAVISVP2,2013-03-29 11:45:00,
2013-03-29 07:50:00,32.5,29.8,30.33,ENE,68,0.0,0.0,90,0.00,,,0.00,WUHU216DAVISVP2,2013-03-29 11:50:00,
2013-03-29 07:55:00,32.5,29.8,30.33,ENE,68,0.0,0.0,90,0.00,,,0.00,WUHU216DAVISVP2,2013-03-29 11:55:00,
2013-03-29 08:00:00,32.4,29.7,30.33,ENE,68,0.0,0.0,90,0.00,,,0.00,WUHU216DAVISVP2,2013-03-29 12:00:00,
2013-03-29 08:05:00,32.4,29.7,30.33,ENE,68,0.0,0.0,90,0.00,,,0.00,WUHU216DAVISVP2,2013-03-29 12:05:00,
2013-03-29 08:10:00,32.9,30.2,30.33,ENE,68,0.0,0.0,90,0.00,,,0.00,WUHU216DAVISVP2,2013-03-29 12:10:00,
2013-03-29 08:15:00,33.7,31.0,30.33,ENE,68,0.0,0.0,90,0.00,,,0.00,WUHU216DAVISVP2,2013-03-29 12:15:00,
2013-03-29 08:20:00,34.3,30.8,30.33,ENE,68,0.0,0.0,87,0.00,,,0.00,WUHU216DAVISVP2,2013-03-29 12:20:00,
2013-03-29 08:25:00,35.4,31.9,30.34,ENE,68,0.0,0.0,87,0.00,,,0.00,WUHU216DAVISVP2,2013-03-29 12:25:00,
2013-03-29 08:30:00,36.4,32.6,30.33,ENE,68,0.0,0.0,86,0.00,,,0.00,WUHU216DAVISVP2,2013-03-29 12:30:00,
2013-03-29 08:36:00,36.8,32.7,30.34,ENE,68,0.0,0.0,85,0.00,,,0.00,WUHU216DAVISVP2,2013-03-29 12:36:00,
2013-03-29 08:41:00,37.2,32.8,30.34,ENE,68,1.0,1.0,84,0.00,,,0.00,WUHU216DAVISVP2,2013-03-29 12:41:00,
2013-03-29 08:46:00,37.2,32.5,30.33,ENE,68,1.0,1.0,83,0.00,,,0.00,WUHU216DAVISVP2,2013-03-29 12:46:00,
2013-03-29 08:51:00,37.5,32.2,30.34,ENE,68,1.0,1.0,81,0.00,,,0.00,WUHU216DAVISVP2,2013-03-29 12:51:00,
2013-03-29 08:56:00,38.5,32.0,30.34,ENE,68,1.0,1.0,77,0.00,,,0.00,WUHU216DAVISVP2,2013-03-29 12:56:00,
2013-03-29 09:01:00,39.1,31.6,30.34,WNW,293,1.0,1.0,74,0.00,,,0.00,WUHU216DAVISVP2,2013-03-29 13:01:00,
2013-03-29 09:06:00,39.6,31.7,30.34,WNW,288,1.0,2.0,73,0.00,,,0.00,WUHU216DAVISVP2,2013-03-29 13:06:00,
2013-03-29 09:11:00,40.2,31.3,30.33,SW,235,2.0,2.0,70,0.00,,,0.00,WUHU216DAVISVP2,2013-03-29 13:11:00,
2013-03-29 09:16:00,40.6,31.3,30.33,WSW,249,1.0,3.0,69,0.00,,,0.00,WUHU216DAVISVP2,2013-03-29 13:16:00,
2013-03-29 09:21:00,41.2,30.4,30.34,NW,309,2.0,3.0,65,0.00,,,0.00,WUHU216DAVISVP2,2013-03-29 13:21:00,
2013-03-29 09:26:00,41.9,30.7,30.34,West,276,1.0,3.0,64,0.00,,,0.00,WUHU216DAVISVP2,2013-03-29 13:26:00,
2013-03-29 09:31:00,42.7,30.7,30.34,West,272,1.1,3.0,62,0.00,,,0.00,WUHU216DAVISVP2,2013-03-29 13:31:00,
2013-03-29 09:36:00,43.4,31.3,30.33,WSW,247,1.3,3.0,62,0.00,,,0.00,WUHU216DAVISVP2,2013-03-29 13:36:00,
2013-03-29 09:41:00,43.8,30.9,30.33,WSW,256,1.7,4.0,60,0.00,,,0.00,WUHU216DAVISVP2,2013-03-29 13:41:00,
2013-03-29 09:46:00,44.2,30.4,30.33,SW,223,1.4,4.0,58,0.00,,,0.00,WUHU216DAVISVP2,2013-03-29 13:46:00,
2013-03-29 09:51:00,44.6,29.9,30.33,WSW,253,2.2,5.0,56,0.00,,,0.00,WUHU216DAVISVP2,2013-03-29 13:51:00,
2013-03-29 09:56:00,45.0,29.8,30.33,WSW,245,1.3,5.0,55,0.00,,,0.00,WUHU216DAVISVP2,2013-03-29 13:56:00,
2013-03-29 10:01:00,45.8,30.1,30.33,SSW,212,1.3,4.0,54,0.00,,,0.00,WUHU216DAVISVP2,2013-03-29 14:01:00,
2013-03-29 10:06:00,46.1,29.4,30.33,SW,236,1.2,4.0,52,0.00,,,0.00,WUHU216DAVISVP2,2013-03-29 14:06:00,
2013-03-29 10:11:00,46.2,29.5,30.33,West,260,2.0,4.0,52,0.00,,,0.00,WUHU216DAVISVP2,2013-03-29 14:11:00,
2013-03-29 10:16:00,46.2,29.5,30.33,SW,228,1.2,4.0,52,0.00,,,0.00,WUHU216DAVISVP2,2013-03-29 14:16:00,
2013-03-29 10:21:00,46.5,30.3,30.33,West,271,1.7,5.0,53,0.00,,,0.00,WUHU216DAVISVP2,2013-03-29 14:21:00,
2013-03-29 10:26:00,46.5,29.3,30.33,WSW,245,1.2,7.0,51,0.00,,,0.00,WUHU216DAVISVP2,2013-03-29 14:26:00,
2013-03-29 10:31:00,46.9,30.2,30.33,West,269,2.0,7.0,52,0.00,,,0.00,WUHU216DAVISVP2,2013-03-29 14:31:00,
2013-03-29 10:36:00,46.6,29.4,30.33,WSW,244,4.0,6.0,51,0.00,,,0.00,WUHU216DAVISVP2,2013-03-29 14:36:00,
2013-03-29 10:41:00,46.6,29.4,30.33,WNW,293,4.2,8.0,51,0.00,,,0.00,WUHU216DAVISVP2,2013-03-29 14:41:00,
2013-03-29 10:46:00,46.9,29.7,30.33,West,271,2.1,8.0,51,0.00,,,0.00,WUHU216DAVISVP2,2013-03-29 14:46:00,
2013-03-29 10:51:00,47.3,30.1,30.33,SSW,209,1.6,8.0,51,0.00,,,0.00,WUHU216DAVISVP2,2013-03-29 14:51:00,
2013-03-29 10:56:00,47.9,31.1,30.32,NNW,339,2.1,8.0,52,0.00,,,0.00,WUHU216DAVISVP2,2013-03-29 14:56:00,
2013-03-29 11:01:00,48.1,30.3,30.32,WNW,293,3.0,6.0,50,0.00,,,0.00,WUHU216DAVISVP2,2013-03-29 15:01:00,
2013-03-29 11:06:00,48.2,29.9,30.32,WSW,238,2.3,5.0,49,0.00,,,0.00,WUHU216DAVISVP2,2013-03-29 15:06:00,
2013-03-29 11:11:00,48.6,29.8,30.32,SW,229,1.4,5.0,48,0.00,,,0.00,WUHU216DAVISVP2,2013-03-29 15:11:00,
2013-03-29 11:16:00,48.7,29.9,30.32,West,278,2.9,5.0,48,0.00,,,0.00,WUHU216DAVISVP2,2013-03-29 15:16:00,
2013-03-29 11:21:00,49.5,31.1,30.32,SW,222,3.0,5.0,49,0.00,,,0.00,WUHU216DAVISVP2,2013-03-29 15:21:00,
2013-03-29 11:26:00,49.1,28.0,30.32,WNW,301,4.0,7.0,44,0.00,,,0.00,WUHU216DAVISVP2,2013-03-29 15:26:00,
2013-03-29 11:31:00,48.7,29.8,30.32,SSW,210,3.0,7.0,48,0.00,,,0.00,WUHU216DAVISVP2,2013-03-29 15:31:00,
2013-03-29 11:36:00,49.5,29.5,30.32,SE,130,1.8,10.0,46,0.00,,,0.00,WUHU216DAVISVP2,2013-03-29 15:36:00,
2013-03-29 11:41:00,50.4,30.8,30.32,WSW,240,4.0,10.0,47,0.00,,,0.00,WUHU216DAVISVP2,2013-03-29 15:41:00,
2013-03-29 11:46:00,50.3,30.8,30.32,WSW,256,1.0,10.0,47,0.00,,,0.00,WUHU216DAVISVP2,2013-03-29 15:46:00,
2013-03-29 11:51:00,49.9,29.3,30.32,West,266,4.0,10.0,45,0.00,,,0.00,WUHU216DAVISVP2,2013-03-29 15:51:00,
2013-03-29 11:56:00,49.8,28.1,30.32,WNW,294,4.6,6.0,43,0.00,,,0.00,WUHU216DAVISVP2,2013-03-29 15:56:00,
2013-03-29 12:01:00,48.8,28.3,30.32,NW,307,3.8,8.0,45,0.00,,,0.00,WUHU216DAVISVP2,2013-03-29 16:01:00,
2013-03-29 12:06:00,49.5,28.9,30.31,WSW,243,2.3,8.0,45,0.00,,,0.00,WUHU216DAVISVP2,2013-03-29 16:06:00,
2013-03-29 12:11:00,49.7,28.5,30.31,West,275,4.0,8.0,44,0.00,,,0.00,WUHU216DAVISVP2,2013-03-29 16:11:00,
2013-03-29 12:16:00,49.1,27.4,30.31,WSW,251,3.6,8.0,43,0.00,,,0.00,WUHU216DAVISVP2,2013-03-29 16:16:00,
2013-03-29 12:21:00,48.7,28.2,30.31,WNW,290,4.0,7.0,45,0.00,,,0.00,WUHU216DAVISVP2,2013-03-29 16:21:00,
2013-03-29 12:26:00,48.6,28.6,30.31,West,266,3.1,6.0,46,0.00,,,0.00,WUHU216DAVISVP2,2013-03-29 16:26:00,
2013-03-29 12:31:00,49.1,28.0,30.31,West,261,2.8,7.0,44,0.00,,,0.00,WUHU216DAVISVP2,2013-03-29 16:31:00,
2013-03-29 12:36:00,50.1,28.9,30.30,WSW,258,3.5,8.0,44,0.00,,,0.00,WUHU216DAVISVP2,2013-03-29 16:36:00,
2013-03-29 12:41:00,51.3,28.2,30.30,WSW,243,3.1,8.0,41,0.00,,,0.00,WUHU216DAVISVP2,2013-03-29 16:41:00,
2013-03-29 12:46:00,51.9,26.2,30.30,SW,214,2.7,8.0,37,0.00,,,0.00,WUHU216DAVISVP2,2013-03-29 16:46:00,
2013-03-29 12:51:00,52.4,27.3,30.30,SW,232,3.7,7.0,38,0.00,,,0.00,WUHU216DAVISVP2,2013-03-29 16:51:00,
2013-03-29 12:56:00,52.5,26.8,30.29,ESE,108,6.0,7.0,37,0.00,,,0.00,WUHU216DAVISVP2,2013-03-29 16:56:00,
2013-03-29 13:01:00,52.2,26.5,30.29,SW,228,3.0,8.0,37,0.00,,,0.00,WUHU216DAVISVP2,2013-03-29 17:01:00,
2013-03-29 13:06:00,52.9,27.8,30.29,WSW,257,4.2,10.0,38,0.00,,,0.00,WUHU216DAVISVP2,2013-03-29 17:06:00,
2013-03-29 13:11:00,53.5,26.3,30.29,SW,235,3.0,10.0,35,0.00,,,0.00,WUHU216DAVISVP2,2013-03-29 17:11:00,
2013-03-29 13:16:00,53.6,25.9,30.28,West,272,3.5,10.0,34,0.00,,,0.00,WUHU216DAVISVP2,2013-03-29 17:16:00,
2013-03-29 13:21:00,53.4,27.8,30.28,NE,44,2.2,10.0,37,0.00,,,0.00,WUHU216DAVISVP2,2013-03-29 17:21:00,
2013-03-29 13:26:00,52.6,25.7,30.28,SE,134,2.0,7.0,35,0.00,,,0.00,WUHU216DAVISVP2,2013-03-29 17:26:00,
2013-03-29 13:31:00,51.8,25.0,30.28,NW,316,3.4,7.0,35,0.00,,,0.00,WUHU216DAVISVP2,2013-03-29 17:31:00,
2013-03-29 13:36:00,50.7,25.8,30.27,NW,306,5.4,9.0,38,0.00,,,0.00,WUHU216DAVISVP2,2013-03-29 17:36:00,
2013-03-29 13:41:00,50.9,24.7,30.27,NNE,26,3.0,9.0,36,0.00,,,0.00,WUHU216DAVISVP2,2013-03-29 17:41:00,
2013-03-29 13:46:00,50.9,24.7,30.27,SW,232,4.0,9.0,36,0.00,,,0.00,WUHU216DAVISVP2,2013-03-29 17:46:00,
2013-03-29 13:51:00,50.9,25.3,30.27,West,268,4.8,13.0,37,0.00,,,0.00,WUHU216DAVISVP2,2013-03-29 17:51:00,
2013-03-29 13:56:00,51.3,27.0,30.27,WSW,239,4.0,13.0,39,0.00,,,0.00,WUHU216DAVISVP2,2013-03-29 17:56:00,
2013-03-29 14:01:00,51.2,25.6,30.27,WNW,293,6.0,12.0,37,0.00,,,0.00,WUHU216DAVISVP2,2013-03-29 18:01:00,
2013-03-29 14:06:00,52.2,29.0,30.26,WSW,242,6.0,9.0,41,0.00,,,0.00,WUHU216DAVISVP2,2013-03-29 18:06:00,
2013-03-29 14:11:00,53.1,27.9,30.26,SW,235,3.9,9.0,38,0.00,,,0.00,WUHU216DAVISVP2,2013-03-29 18:11:00,
2013-03-29 14:16:00,53.8,27.2,30.26,WSW,244,2.6,9.0,36,0.00,,,0.00,WUHU216DAVISVP2,2013-03-29 18:16:00,
2013-03-29 14:21:00,53.6,27.1,30.26,WSW,250,4.3,8.0,36,0.00,,,0.00,WUHU216DAVISVP2,2013-03-29 18:21:00,
2013-03-29 14:26:00,53.2,28.0,30.25,NNW,328,4.0,10.0,38,0.00,,,0.00,WUHU216DAVISVP2,2013-03-29 18:26:00,
2013-03-29 14:31:00,53.4,28.2,30.25,South,176,2.0,10.0,38,0.00,,,0.00,WUHU216DAVISVP2,2013-03-29 18:31:00,
2013-03-29 14:36:00,54.1,26.1,30.25,WSW,254,5.8,12.0,34,0.00,,,0.00,WUHU216DAVISVP2,2013-03-29 18:36:00,
2013-03-29 14:41:00,53.6,26.4,30.24,WSW,247,4.0,12.0,35,0.00,,,0.00,WUHU216DAVISVP2,2013-03-29 18:41:00,
2013-03-29 14:46:00,53.4,26.9,30.24,SW,235,8.0,11.0,36,0.00,,,0.00,WUHU216DAVISVP2,2013-03-29 18:46:00,
2013-03-29 14:51:00,53.7,25.8,30.23,NNW,343,5.2,11.0,34,0.00,,,0.00,WUHU216DAVISVP2,2013-03-29 18:51:00,
2013-03-29 14:56:00,54.1,26.1,30.23,WNW,295,5.8,11.0,34,0.00,,,0.00,WUHU216DAVISVP2,2013-03-29 18:56:00,
2013-03-29 15:01:00,53.9,26.6,30.24,WNW,282,7.4,12.0,35,0.00,,,0.00,WUHU216DAVISVP2,2013-03-29 19:01:00,
2013-03-29 15:06:00,53.6,25.7,30.23,West,264,5.9,12.0,34,0.00,,,0.00,WUHU216DAVISVP2,2013-03-29 19:06:00,
2013-03-29 15:12:00,53.7,25.8,30.23,NW,308,5.0,12.0,34,0.00,,,0.00,WUHU216DAVISVP2,2013-03-29 19:12:00,
2013-03-29 15:17:00,53.6,27.7,30.23,West,263,2.2,12.0,37,0.00,,,0.00,WUHU216DAVISVP2,2013-03-29 19:17:00,
2013-03-29 15:22:00,54.8,26.0,30.22,SSW,206,1.7,10.0,33,0.00,,,0.00,WUHU216DAVISVP2,2013-03-29 19:22:00,
2013-03-29 15:27:00,54.9,26.1,30.22,WNW,302,4.0,12.0,33,0.00,,,0.00,WUHU216DAVISVP2,2013-03-29 19:27:00,
2013-03-29 15:32:00,54.7,27.3,30.22,WNW,302,4.6,12.0,35,0.00,,,0.00,WUHU216DAVISVP2,2013-03-29 19:32:00,
2013-03-29 15:37:00,54.3,27.0,30.22,WNW,282,6.4,12.0,35,0.00,,,0.00,WUHU216DAVISVP2,2013-03-29 19:37:00,
2013-03-29 15:42:00,54.1,26.8,30.21,ENE,60,2.0,12.0,35,0.00,,,0.00,WUHU216DAVISVP2,2013-03-29 19:42:00,
2013-03-29 15:47:00,55.0,27.6,30.21,West,264,6.0,12.0,35,0.00,,,0.00,WUHU216DAVISVP2,2013-03-29 19:47:00,
2013-03-29 15:52:00,55.1,27.7,30.21,WSW,249,2.5,11.0,35,0.00,,,0.00,WUHU216DAVISVP2,2013-03-29 19:52:00,
2013-03-29 15:57:00,54.9,25.4,30.21,ESE,111,1.0,11.0,32,0.00,,,0.00,WUHU216DAVISVP2,2013-03-29 19:57:00,
2013-03-29 16:02:00,53.7,25.8,30.21,SW,235,3.0,11.0,34,0.00,,,0.00,WUHU216DAVISVP2,2013-03-29 20:02:00,
2013-03-29 16:07:00,54.0,26.0,30.21,WNW,292,1.8,11.0,34,0.00,,,0.00,WUHU216DAVISVP2,2013-03-29 20:07:00,
2013-03-29 16:12:00,54.8,26.0,30.21,WNW,288,4.0,10.0,33,0.00,,,0.00,WUHU216DAVISVP2,2013-03-29 20:12:00,
2013-03-29 16:17:00,54.2,25.5,30.21,West,264,6.0,9.0,33,0.00,,,0.00,WUHU216DAVISVP2,2013-03-29 20:17:00,
2013-03-29 16:22:00,53.8,26.5,30.21,West,260,4.0,9.0,35,0.00,,,0.00,WUHU216DAVISVP2,2013-03-29 20:22:00,
2013-03-29 16:27:00,53.3,25.4,30.20,WSW,250,2.4,9.0,34,0.00,,,0.00,WUHU216DAVISVP2,2013-03-29 20:27:00,
2013-03-29 16:32:00,53.7,25.8,30.20,WNW,297,7.0,11.0,34,0.00,,,0.00,WUHU216DAVISVP2,2013-03-29 20:32:00,
2013-03-29 16:37:00,53.3,25.4,30.20,WNW,286,4.4,11.0,34,0.00,,,0.00,WUHU216DAVISVP2,2013-03-29 20:37:00,
2013-03-29 16:42:00,53.3,25.4,30.20,WSW,254,7.7,12.0,34,0.00,,,0.00,WUHU216DAVISVP2,2013-03-29 20:42:00,
2013-03-29 16:47:00,53.7,25.8,30.20,NW,325,2.2,12.0,34,0.00,,,0.00,WUHU216DAVISVP2,2013-03-29 20:47:00,
2013-03-29 16:52:00,54.3,25.6,30.20,WSW,253,5.1,11.0,33,0.00,,,0.00,WUHU216DAVISVP2,2013-03-29 20:52:00,
2013-03-29 16:57:00,53.9,25.9,30.20,WSW,255,5.0,11.0,34,0.00,,,0.00,WUHU216DAVISVP2,2013-03-29 20:57:00,
2013-03-29 17:02:00,53.6,25.7,30.20,WSW,255,5.0,11.0,34,0.00,,,0.00,WUHU216DAVISVP2,2013-03-29 21:02:00,
2013-03-29 17:07:00,53.6,24.9,30.20,NW,319,2.4,11.0,33,0.00,,,0.00,WUHU216DAVISVP2,2013-03-29 21:07:00,
2013-03-29 17:12:00,53.9,28.0,30.20,WNW,302,5.0,11.0,37,0.00,,,0.00,WUHU216DAVISVP2,2013-03-29 21:12:00,
2013-03-29 17:17:00,53.9,25.2,30.20,WNW,298,4.0,9.0,33,0.00,,,0.00,WUHU216DAVISVP2,2013-03-29 21:17:00,
2013-03-29 17:22:00,53.4,26.2,30.20,North,353,4.0,9.0,35,0.00,,,0.00,WUHU216DAVISVP2,2013-03-29 21:22:00,
2013-03-29 17:27:00,53.7,27.1,30.20,West,273,3.0,8.0,36,0.00,,,0.00,WUHU216DAVISVP2,2013-03-29 21:27:00,
2013-03-29 17:32:00,54.5,27.2,30.20,NW,309,2.4,10.0,35,0.00,,,0.00,WUHU216DAVISVP2,2013-03-29 21:32:00,
2013-03-29 17:37:00,54.2,25.5,30.20,North,0,3.4,10.0,33,0.00,,,0.00,WUHU216DAVISVP2,2013-03-29 21:37:00,
2013-03-29 17:42:00,53.4,25.5,30.20,West,280,4.0,10.0,34,0.00,,,0.00,WUHU216DAVISVP2,2013-03-29 21:42:00,
2013-03-29 17:47:00,53.1,25.9,30.20,WSW,240,2.3,10.0,35,0.00,,,0.00,WUHU216DAVISVP2,2013-03-29 21:47:00,
2013-03-29 17:52:00,53.2,26.7,30.20,WSW,249,7.0,8.0,36,0.00,,,0.00,WUHU216DAVISVP2,2013-03-29 21:52:00,
2013-03-29 17:57:00,53.1,26.6,30.20,WSW,252,2.2,8.0,36,0.00,,,0.00,WUHU216DAVISVP2,2013-03-29 21:57:00,
2013-03-29 18:02:00,53.0,25.8,30.20,WSW,246,4.6,10.0,35,0.00,,,0.00,WUHU216DAVISVP2,2013-03-29 22:02:00,
2013-03-29 18:07:00,52.9,25.8,30.20,West,264,3.0,10.0,35,0.00,,,0.00,WUHU216DAVISVP2,2013-03-29 22:07:00,
2013-03-29 18:12:00,52.8,25.7,30.20,West,266,4.8,10.0,35,0.00,,,0.00,WUHU216DAVISVP2,2013-03-29 22:12:00,
2013-03-29 18:17:00,52.6,26.2,30.20,WSW,245,5.0,12.0,36,0.00,,,0.00,WUHU216DAVISVP2,2013-03-29 22:17:00,
2013-03-29 18:22:00,52.6,26.4,30.20,West,261,3.6,12.0,36,0.00,,,0.00,WUHU216DAVISVP2,2013-03-29 22:22:00,
2013-03-29 18:27:00,52.5,26.1,30.20,West,268,4.5,12.0,36,0.00,,,0.00,WUHU216DAVISVP2,2013-03-29 22:27:00,
2013-03-29 18:32:00,52.6,26.2,30.20,NW,324,9.0,12.0,36,0.00,,,0.00,WUHU216DAVISVP2,2013-03-29 22:32:00,
2013-03-29 18:37:00,52.2,25.8,30.20,WNW,283,5.2,12.0,36,0.00,,,0.00,WUHU216DAVISVP2,2013-03-29 22:37:00,
2013-03-29 18:42:00,52.1,26.4,30.20,WSW,249,3.8,12.0,37,0.00,,,0.00,WUHU216DAVISVP2,2013-03-29 22:42:00,
2013-03-29 18:47:00,52.0,26.3,30.20,West,277,3.3,12.0,37,0.00,,,0.00,WUHU216DAVISVP2,2013-03-29 22:47:00,
2013-03-29 18:53:00,51.8,26.8,30.20,NW,305,2.0,9.0,38,0.00,,,0.00,WUHU216DAVISVP2,2013-03-29 22:53:00,
2013-03-29 18:58:00,51.6,25.9,30.20,West,281,2.5,9.0,37,0.00,,,0.00,WUHU216DAVISVP2,2013-03-29 22:58:00,
2013-03-29 19:03:00,51.4,26.4,30.20,West,278,1.6,6.0,38,0.00,,,0.00,WUHU216DAVISVP2,2013-03-29 23:03:00,
2013-03-29 19:08:00,51.2,26.2,30.20,NNE,15,1.0,6.0,38,0.00,,,0.00,WUHU216DAVISVP2,2013-03-29 23:08:00,
2013-03-29 19:13:00,51.0,26.1,30.20,NNE,29,1.0,6.0,38,0.00,,,0.00,WUHU216DAVISVP2,2013-03-29 23:13:00,
2013-03-29 19:18:00,50.9,26.0,30.20,NNW,328,1.0,3.0,38,0.00,,,0.00,WUHU216DAVISVP2,2013-03-29 23:18:00,
2013-03-29 19:23:00,50.8,26.5,30.20,West,274,1.0,3.0,39,0.00,,,0.00,WUHU216DAVISVP2,2013-03-29 23:23:00,
2013-03-29 19:28:00,50.7,25.8,30.20,SW,225,7.0,7.0,38,0.00,,,0.00,WUHU216DAVISVP2,2013-03-29 23:28:00,
2013-03-29 19:33:00,50.7,27.8,30.20,West,267,2.2,10.0,41,0.00,,,0.00,WUHU216DAVISVP2,2013-03-29 23:33:00,
2013-03-29 19:38:00,50.5,26.4,30.20,WSW,251,1.3,10.0,39,0.00,,,0.00,WUHU216DAVISVP2,2013-03-29 23:38:00,
2013-03-29 19:43:00,50.6,26.5,30.20,WSW,247,1.5,9.0,39,0.00,,,0.00,WUHU216DAVISVP2,2013-03-29 23:43:00,
2013-03-29 19:48:00,50.7,26.0,30.20,WSW,251,4.1,9.0,38,0.00,,,0.00,WUHU216DAVISVP2,2013-03-29 23:48:00,
2013-03-29 19:53:00,50.6,25.9,30.20,West,262,1.0,8.0,38,0.00,,,0.00,WUHU216DAVISVP2,2013-03-29 23:53:00,
2013-03-29 19:58:00,50.4,26.3,30.20,West,268,2.2,7.0,39,0.00,,,0.00,WUHU216DAVISVP2,2013-03-29 23:58:00,
2013-03-29 20:03:00,50.1,26.5,30.20,WNW,287,1.0,7.0,40,0.00,,,0.00,WUHU216DAVISVP2,2013-03-30 00:03:00,
2013-03-29 20:08:00,49.9,27.0,30.20,West,268,1.1,4.0,41,0.00,,,0.00,WUHU216DAVISVP2,2013-03-30 00:08:00,
2013-03-29 20:13:00,49.5,27.8,30.21,NNW,330,1.2,4.0,43,0.00,,,0.00,WUHU216DAVISVP2,2013-03-30 00:13:00,
2013-03-29 20:18:00,48.8,26.6,30.21,NNW,347,1.0,4.0,42,0.00,,,0.00,WUHU216DAVISVP2,2013-03-30 00:18:00,
2013-03-29 20:23:00,48.3,27.3,30.21,North,354,0.0,3.0,44,0.00,,,0.00,WUHU216DAVISVP2,2013-03-30 00:23:00,
2013-03-29 20:28:00,47.8,27.4,30.21,North,354,1.0,2.0,45,0.00,,,0.00,WUHU216DAVISVP2,2013-03-30 00:28:00,
2013-03-29 20:33:00,47.6,26.6,30.21,North,354,0.0,2.0,44,0.00,,,0.00,WUHU216DAVISVP2,2013-03-30 00:33:00,
2013-03-29 20:38:00,46.8,29.1,30.21,North,349,0.0,1.0,50,0.00,,,0.00,WUHU216DAVISVP2,2013-03-30 00:38:00,
2013-03-29 20:43:00,46.0,28.9,30.21,NNE,31,1.0,1.0,51,0.00,,,0.00,WUHU216DAVISVP2,2013-03-30 00:43:00,
2013-03-29 20:48:00,45.7,29.5,30.21,NNE,32,0.0,1.0,53,0.00,,,0.00,WUHU216DAVISVP2,2013-03-30 00:48:00,
2013-03-29 20:53:00,45.0,30.3,30.21,NNE,32,0.0,1.0,56,0.00,,,0.00,WUHU216DAVISVP2,2013-03-30 00:53:00,
2013-03-29 20:58:00,44.4,29.7,30.22,NNE,32,0.0,1.0,56,0.00,,,0.00,WUHU216DAVISVP2,2013-03-30 00:58:00,
2013-03-29 21:03:00,44.2,30.4,30.22,NNE,32,0.0,0.0,58,0.00,,,0.00,WUHU216DAVISVP2,2013-03-30 01:03:00,
2013-03-29 21:08:00,43.6,30.3,30.22,NNE,32,0.0,0.0,59,0.00,,,0.00,WUHU216DAVISVP2,2013-03-30 01:08:00,
2013-03-29 21:13:00,43.1,29.8,30.22,NNE,32,0.0,0.0,59,0.00,,,0.00,WUHU216DAVISVP2,2013-03-30 01:13:00,
2013-03-29 21:18:00,42.7,29.4,30.22,NNE,32,0.0,0.0,59,0.00,,,0.00,WUHU216DAVISVP2,2013-03-30 01:18:00,
2013-03-29 21:23:00,42.2,29.0,30.22,NNE,32,0.0,0.0,59,0.00,,,0.00,WUHU216DAVISVP2,2013-03-30 01:23:00,
2013-03-29 21:28:00,41.6,29.2,30.22,NNE,32,0.0,0.0,61,0.00,,,0.00,WUHU216DAVISVP2,2013-03-30 01:28:00,
2013-03-29 21:33:00,41.2,29.6,30.22,NNE,32,0.0,0.0,63,0.00,,,0.00,WUHU216DAVISVP2,2013-03-30 01:33:00,
2013-03-29 21:38:00,40.8,29.6,30.22,NNE,32,0.0,0.0,64,0.00,,,0.00,WUHU216DAVISVP2,2013-03-30 01:38:00,
2013-03-29 21:43:00,40.2,29.4,30.23,NNE,31,0.0,0.0,65,0.00,,,0.00,WUHU216DAVISVP2,2013-03-30 01:43:00,
2013-03-29 21:48:00,39.8,29.7,30.23,NNE,31,0.0,0.0,67,0.00,,,0.00,WUHU216DAVISVP2,2013-03-30 01:48:00,
2013-03-29 21:53:00,39.3,29.3,30.23,NNE,32,0.0,0.0,67,0.00,,,0.00,WUHU216DAVISVP2,2013-03-30 01:53:00,
2013-03-29 21:58:00,39.5,29.8,30.23,NNE,31,0.0,0.0,68,0.00,,,0.00,WUHU216DAVISVP2,2013-03-30 01:58:00,
2013-03-29 22:03:00,39.4,29.3,30.23,NNE,31,1.0,1.0,67,0.00,,,0.00,WUHU216DAVISVP2,2013-03-30 02:03:00,
2013-03-29 22:08:00,38.8,29.5,30.23,NNE,32,0.0,1.0,69,0.00,,,0.00,WUHU216DAVISVP2,2013-03-30 02:08:00,
2013-03-29 22:13:00,38.0,29.1,30.23,NNE,31,0.0,1.0,70,0.00,,,0.00,WUHU216DAVISVP2,2013-03-30 02:13:00,
2013-03-29 22:18:00,37.7,29.6,30.24,NNE,32,0.0,1.0,72,0.00,,,0.00,WUHU216DAVISVP2,2013-03-30 02:18:00,
2013-03-29 22:23:00,37.5,29.4,30.24,NNE,32,0.0,0.0,72,0.00,,,0.00,WUHU216DAVISVP2,2013-03-30 02:23:00,
2013-03-29 22:28:00,37.5,29.4,30.24,NNE,31,0.0,0.0,72,0.00,,,0.00,WUHU216DAVISVP2,2013-03-30 02:28:00,
2013-03-29 22:33:00,37.6,29.5,30.24,NNE,31,0.0,0.0,72,0.00,,,0.00,WUHU216DAVISVP2,2013-03-30 02:33:00,
2013-03-29 22:38:00,37.5,29.4,30.24,NNE,32,0.0,0.0,72,0.00,,,0.00,WUHU216DAVISVP2,2013-03-30 02:38:00,
2013-03-29 22:43:00,37.0,29.2,30.24,NNE,31,0.0,0.0,73,0.00,,,0.00,WUHU216DAVISVP2,2013-03-30 02:43:00,
2013-03-29 22:48:00,36.6,29.8,30.24,NNE,32,0.0,0.0,76,0.00,,,0.00,WUHU216DAVISVP2,2013-03-30 02:48:00,
2013-03-29 22:53:00,36.7,29.6,30.24,NNE,31,0.0,0.0,75,0.00,,,0.00,WUHU216DAVISVP2,2013-03-30 02:53:00,
2013-03-29 22:58:00,36.5,29.4,30.24,NNE,31,0.0,0.0,75,0.00,,,0.00,WUHU216DAVISVP2,2013-03-30 02:58:00,
2013-03-29 23:03:00,36.4,29.6,30.24,NNE,31,0.0,0.0,76,0.00,,,0.00,WUHU216DAVISVP2,2013-03-30 03:03:00,
2013-03-29 23:08:00,36.5,30.0,30.24,NNE,32,0.0,0.0,77,0.00,,,0.00,WUHU216DAVISVP2,2013-03-30 03:08:00,
2013-03-29 23:13:00,36.6,30.1,30.24,NNE,32,0.0,0.0,77,0.00,,,0.00,WUHU216DAVISVP2,2013-03-30 03:13:00,
2013-03-29 23:18:00,36.5,29.7,30.24,NNE,32,0.0,0.0,76,0.00,,,0.00,WUHU216DAVISVP2,2013-03-30 03:18:00,
2013-03-29 23:23:00,36.5,30.0,30.24,NNE,31,0.0,0.0,77,0.00,,,0.00,WUHU216DAVISVP2,2013-03-30 03:23:00,
2013-03-29 23:28:00,36.8,30.3,30.24,NNE,31,0.0,0.0,77,0.00,,,0.00,WUHU216DAVISVP2,2013-03-30 03:28:00,
2013-03-29 23:33:00,36.9,30.4,30.24,NNE,31,0.0,0.0,77,0.00,,,0.00,WUHU216DAVISVP2,2013-03-30 03:33:00,
2013-03-29 23:38:00,36.6,30.4,30.24,NNE,31,0.0,0.0,78,0.00,,,0.00,WUHU216DAVISVP2,2013-03-30 03:38:00,
2013-03-29 23:43:00,36.2,30.3,30.24,NNE,31,0.0,0.0,79,0.00,,,0.00,WUHU216DAVISVP2,2013-03-30 03:43:00,
2013-03-29 23:48:00,35.9,30.6,30.24,NNE,31,0.0,0.0,81,0.00,,,0.00,WUHU216DAVISVP2,2013-03-30 03:48:00,
2013-03-29 23:53:00,35.9,30.3,30.24,NNE,32,0.0,0.0,80,0.00,,,0.00,WUHU216DAVISVP2,2013-03-30 03:53:00,
2013-03-29 23:58:00,35.9,30.3,30.24,NNE,31,0.0,0.0,80,0.00,,,0.00,WUHU216DAVISVP2,2013-03-30 03:58:00,